Regional Weather Roundup
Issued by NWS

Home | Current Version | Previous Version | Text Only | Print | Product List | Glossary Off
Versions: 1 2 3 4 5 6 7 8 9 10 11 12 13 14 15 16 17 18 19 20 21 22 23 24 25 26 27 28 29 30 31 32 33 34 35 36 37 38 39 40 41 42 43 44 45 46 47 48 49 50

000
ASUS43 KOAX 281310
RWRNE

WEATHER ROUNDUP FOR NEBRASKA
NATIONAL WEATHER SERVICE OMAHA NE
700 AM CST SAT FEB 28 2015

NOTES: SATELLITE DATA IS BEING USED TO AUGMENT CLOUD COVER ABOVE
       12000 FEET.
       "FAIR" INDICATES FEW OR NO CLOUDS BELOW 12,000 FEET WITH NO
       SIGNIFICANT WEATHER AND/OR OBSTRUCTIONS TO VISIBILITY.

  * THESE STATIONS DO NOT REPORT WEATHER SUCH AS RAIN...SNOW OR FOG.

NEZ001>004-019>022-054>056-281400-
NEBRASKA PANHANDLE

CITY           SKY/WX    TMP DP  RH WIND       PRES   REMARKS
SCOTTSBLUFF    CLOUDY     9   5  84 E7        30.02R WCI  -2
ALLIANCE       CLEAR      3  -1  83 S3        30.02R
CHADRON        CLEAR      5  -1  76 SW7       30.05R WCI  -7
KIMBALL        PTCLDY    -2  -6  83 CALM      29.93R
SIDNEY         PTCLDY     1  -5  75 S3        30.02R
$$

NEZ057>060-069>072-079>082-281400-
SOUTHWEST NEBRASKA

CITY           SKY/WX    TMP DP  RH WIND       PRES   REMARKS
NORTH PLATTE   CLOUDY    13   6  74 S13       30.17S WCI  -2
IMPERIAL         N/A     13   7  77 S14       30.12R WCI  -2
LEXINGTON      FLURRIES  14   9  79 S10       30.25R WCI   1
MCCOOK         CLOUDY    15   8  73 S13       30.21S WCI   1
OGALLALA       PTCLDY    11   8  88 CALM      30.11R
$$

NEZ005>010-023>029-035>040-094-281400-
NORTH CENTRAL NEBRASKA

CITY           SKY/WX    TMP DP  RH WIND       PRES   REMARKS
VALENTINE      CLEAR     11   5  77 S14       30.14S WCI  -5
AINSWORTH      CLEAR      8   4  85 S8        30.16F WCI  -5
BROKEN BOW     CLOUDY    13   7  77 S9        30.22S WCI   1
O`NEILL        CLEAR      7   4  86 S10       30.27S WCI  -7
ORD            MOCLDY     9   4  80 S10       30.27F WCI  -5
THEDFORD       CLEAR      9   5  85 S5        30.15S WCI   0
$$

NEZ041-046>049-061>064-073>077-083>087-281400-
SOUTH CENTRAL NEBRASKA

CITY           SKY/WX    TMP DP  RH WIND       PRES   REMARKS
GRAND ISLAND   FAIR       6   4  91 S7        30.35F WCI  -6
AURORA         FLURRIES  10   8  88 S8        30.35F WCI  -1
HASTINGS       CLOUDY     7   4  87 S6        30.32F WCI  -3
HEBRON         PTCLDY     9   6  85 SE6       30.40F WCI  -1
HOLDREGE       CLOUDY    12   8  83 S10       30.27S WCI  -1
KEARNEY *      CLOUDY    10   7  85 SE8       30.29S WCI  -1
YORK           MOCLDY     7   5  92 S6        30.38F WCI  -3
$$

NEZ011>018-030>034-042>045-281400-
NORTHEAST NEBRASKA

CITY           SKY/WX    TMP DP  RH WIND       PRES   REMARKS
NORFOLK        CLEAR      7   1  76 S10       30.37S WCI  -8
ALBION         CLEAR      6   2  82 SE7       30.34S WCI  -6
BLAIR          CLEAR      8   1  74 SE6       30.45S WCI  -2
COLUMBUS *     CLEAR      9  -2  61 S8        30.41S WCI  -4
FREMONT        FAIR       9   3  77 SE7       30.45S WCI  -3
WAYNE          CLEAR      3  -2  78 S8        30.41S WCI -10
$$

NEZ050>053-065>068-078-088>093-281400-
SOUTHEAST NEBRASKA

CITY           SKY/WX    TMP DP  RH WIND       PRES   REMARKS
LINCOLN        CLEAR      6   1  80 S5        30.46S WCI  -3
OMAHA EPPLEY   PTCLDY     7   1  76 SE6       30.51R WCI  -3
BEATRICE       PTCLDY     9   2  75 SE3       30.44F
FALLS CITY     CLEAR     10   4  76 SE5       30.50S WCI   2
NEBRASKA CITY  CLEAR      5  -1  75 S5        30.48S WCI  -4
PLATTSMOUTH    CLEAR      5   0  80 SE6       30.48S WCI  -5
$$

NEZ044-045-051>053-067-281400-
OMAHA AREA

CITY           SKY/WX    TMP DP  RH WIND       PRES   REMARKS
OMAHA EPPLEY   PTCLDY     7   1  76 SE6       30.51R WCI  -3
BLAIR          CLEAR      8   1  74 SE6       30.45S WCI  -2
FREMONT        FAIR       9   3  77 SE7       30.45S WCI  -3
MILLARD        CLEAR      7   1  75 SE5       30.49R WCI  -1
OFFUTT AFB     CLEAR      6   1  78 E5        30.49R WCI  -3
PLATTSMOUTH    CLEAR      5   0  80 SE6       30.48S WCI  -5
WAHOO          FAIR       3  -3  77 SE7       30.45F WCI  -9
$$



USA.gov is the U.S. government's official web portal to all federal, state and local government web resources and services.